This is the latest recevied weather packets stored in our database for station/object IN3XSV. If no packets are shown the sender has not sent any weather packets the latest 10 day(s).
| Time | Temp. | Humidity | Pressure | Rain* | Wind** | Luminosity | Snow |
|---|---|---|---|---|---|---|---|
| 1777644831 | 20° C | 37% | 1016.4 hPa | 0 mm | - | - | - |
| 1777644531 | 20.56° C | 38% | 1016.6 hPa | 0 mm | - | - | - |
| 1777644231 | 20.56° C | 39% | 1016.6 hPa | 0 mm | - | - | - |
| 1777643931 | 20° C | 39% | 1016.6 hPa | 0 mm | - | - | - |
| 1777643631 | 20° C | 40% | 1016.7 hPa | 0 mm | - | - | - |
| 1777643331 | 20° C | 41% | 1016.7 hPa | 0 mm | - | - | - |
| 1777643031 | 19.44° C | 39% | 1016.8 hPa | 0 mm | - | - | - |
| 1777642731 | 20° C | 40% | 1016.9 hPa | 0 mm | - | - | - |
| 1777642431 | 20° C | 40% | 1016.9 hPa | 0 mm | - | - | - |
| 1777642131 | 20° C | 42% | 1017 hPa | 0 mm | - | - | - |
| 1777641831 | 20° C | 42% | 1017 hPa | 0 mm | - | - | - |
| 1777641531 | 19.44° C | 42% | 1017.1 hPa | 0 mm | - | - | - |
| 1777641231 | 19.44° C | 43% | 1017.2 hPa | 0 mm | - | - | - |
| 1777640931 | 18.89° C | 43% | 1017.3 hPa | 0 mm | - | - | - |
| 1777640631 | 18.89° C | 42% | 1017.3 hPa | 0 mm | - | - | - |
| 1777640331 | 18.89° C | 43% | 1017.4 hPa | 0 mm | - | - | - |
| 1777640031 | 18.89° C | 44% | 1017.6 hPa | 0 mm | - | - | - |
| 1777639731 | 18.33° C | 43% | 1017.6 hPa | 0 mm | - | - | - |
| 1777639431 | 18.33° C | 43% | 1017.6 hPa | 0 mm | - | - | - |
| 1777639131 | 18.33° C | 41% | 1017.7 hPa | 0 mm | - | - | - |
| 1777638831 | 18.33° C | 42% | 1017.7 hPa | 0 mm | - | - | - |
| 1777638531 | 17.78° C | 44% | 1017.8 hPa | 0 mm | - | - | - |
| 1777638231 | 17.78° C | 42% | 1017.7 hPa | 0 mm | - | - | - |
| 1777637931 | 17.78° C | 42% | 1017.9 hPa | 0 mm | - | - | - |
| 1777637631 | 18.33° C | 42% | 1017.9 hPa | 0 mm | - | - | - |
* Rain latest hour (hover to see other rain measurements)
** Current wind speed in m/s (hover to see current wind gust speed)